Simultaneous Nadir Overpasses (SNOs) Predictions

Prediction of SNOs between METOP-B and TERRA Satellite Orbit:

Table of predicted SNOs for the next 14.0 days since TLE Epoch: 10/9/2018
Index Date (METOP-B) Time (METOP-B) Lat,Lon (METOP-B) SZA (METOP-B ) Date (TERRA) Time (TERRA) Lat,Lon (TERRA) SZA (TERRA ) Distance(km) Time Diff (sec)
1 10/09/2018 11:13:50 81.31, 58.72 90.74 10/09/2018 11:13:44 81.31, 58.84 90.75 1.98 6
2 10/12/2018 05:57:33 -81.31, -42.41 88.23 10/12/2018 05:58:31 -81.31, -42.40 88.20 0.47 58
3 10/12/2018 06:48:12 81.32, 125.40 91.85 10/12/2018 06:47:57 81.31, 125.29 91.82 2.12 15
4 10/15/2018 01:31:55 -81.31, 23.89 87.18 10/15/2018 01:32:43 -81.31, 24.05 87.14 2.70 48
5 10/15/2018 02:22:34 81.32,-168.30 92.90 10/15/2018 02:22:09 81.31,-168.30 92.88 0.85 25
6 10/17/2018 21:06:17 -81.31, 90.58 86.10 10/17/2018 21:06:56 -81.31, 90.45 86.10 2.40 39
7 10/17/2018 21:56:56 81.32,-101.60 93.98 10/17/2018 21:56:21 81.33,-101.55 93.97 1.07 35
8 10/20/2018 16:40:39 -81.32, 157.28 85.04 10/20/2018 16:41:08 -81.32, 157.19 85.03 1.62 29




NCC Satellite Simultaneous Nadir Overpasses (SNOs) Prediction Service
